Weather History for Cleveland Burke, OH

Change the Weather History Date:

Saturday, March 2, 2013

  Actual Average Record
Temperature  
Mean Temperature 25 °F -  
Max Temperature 27 °F 38 °F 57 °F (2004)
Min Temperature 23 °F 26 °F 9 °F (2003)
Degree Days  
Heating Degree Days 40    
Moisture  
Dew Point 22 °F    
Average Humidity 85    
Maximum Humidity 93    
Minimum Humidity 78    
Precipitation  
Precipitation 0.02 in - - ()
Sea Level Pressure  
Sea Level Pressure 30.01 in    
Wind  
Wind Speed 10 mph (North)    
Max Wind Speed 16 mph    
Max Gust Speed -    
Visibility 6 miles    
Events Snow    
Averages and records for this station are not official NWS values.
T = Trace of Precipitation, MM = Missing Value Source: NWS Daily Summary

Daily Weather History Graph

Daily Weather History Graph

Search for Another Location

Airport:

Trip Planner

Search our weather history database for the weather conditions in past years. The results will help you decide how hot, cold, wet, or windy it might be!

Date:

Astronomy

Mar. 02, 2013 Rise Set
Actual Time 6:59 AM EST 6:18 PM EST
Civil Twilight 6:31 AM EST 6:46 PM EST
Nautical Twilight 5:59 AM EST 7:18 PM EST
Astronomical Twilight 5:27 AM EST 7:50 PM EST
Moon No Moon Rise 9:22 AM EST (3/2)
Length of Visible Light 12h 14m
Length of Day
11h 19m
Waning Gibbous, 74% of the Moon is Illuminated
Mar 2
Waning Gibbous
Mar 4
Last Quarter
Mar 11
New
Mar 19
First Quarter
Mar 27
Full

Hourly Weather History & Observations

Time (EST) Temp. Windchill Dew Point Humidity Pressure Visibility Wind Dir Wind Speed Gust Speed Precip Events Conditions
12:53 AM 25.0 °F 14.2 °F 21.9 °F 88% 30.04 in 10.0 mi NNE 11.5 mph - N/A   Overcast
1:04 AM 24.8 °F 14.6 °F 21.2 °F 86% 30.02 in 9.0 mi NNE 10.4 mph - N/A   Overcast
1:27 AM 24.8 °F 15.3 °F 21.2 °F 86% 30.02 in 10.0 mi NNE 9.2 mph - N/A   Overcast
1:34 AM 26.6 °F 15.7 °F 21.2 °F 80% 30.01 in 10.0 mi NNE 12.7 mph - N/A   Overcast
1:53 AM 25.0 °F 14.2 °F 19.0 °F 78% 30.04 in 10.0 mi North 11.5 mph - N/A   Overcast
2:53 AM 25.0 °F 15.5 °F 19.9 °F 81% 30.03 in 10.0 mi NNE 9.2 mph - N/A   Overcast
4:53 AM 25.0 °F 13.1 °F 19.9 °F 81% 30.01 in 6.0 mi NNE 13.8 mph - 0.00 in Snow Light Snow
5:53 AM 25.0 °F 13.1 °F 19.9 °F 81% 30.02 in 10.0 mi North 13.8 mph - 0.00 in   Overcast
7:11 AM 23.0 °F 12.4 °F 21.2 °F 93% 30.00 in 3.0 mi North 10.4 mph - 0.00 in Snow Light Snow
7:25 AM 24.8 °F 15.3 °F 19.4 °F 80% 30.00 in 2.5 mi North 9.2 mph - 0.00 in Snow Light Snow
7:53 AM 24.1 °F 16.0 °F 21.9 °F 91% 30.02 in 2.5 mi North 6.9 mph - 0.00 in Snow Light Snow
8:05 AM 24.8 °F 16.9 °F 21.2 °F 86% 30.00 in 1.8 mi North 6.9 mph - 0.00 in Snow Light Snow
8:16 AM 24.8 °F 17.9 °F 21.2 °F 86% 30.00 in 1.5 mi North 5.8 mph - 0.00 in Snow Light Snow
8:30 AM 24.8 °F 17.9 °F 21.2 °F 86% 30.00 in 2.5 mi NNE 5.8 mph - 0.00 in Snow Light Snow
8:37 AM 24.8 °F 17.9 °F 21.2 °F 86% 30.00 in 1.0 mi North 5.8 mph - 0.00 in Snow Light Snow
8:53 AM 25.0 °F 16.3 °F 21.9 °F 88% 30.03 in 2.0 mi North 8.1 mph - 0.00 in Snow Light Snow
8:57 AM 24.8 °F 16.9 °F 21.2 °F 86% 30.00 in 1.8 mi North 6.9 mph - 0.00 in Snow Light Snow
9:05 AM 24.8 °F 16.9 °F 21.2 °F 86% 30.00 in 2.0 mi North 6.9 mph - 0.00 in Snow Light Snow
9:19 AM 24.8 °F 19.1 °F 21.2 °F 86% 30.00 in 4.0 mi North 4.6 mph - 0.00 in Snow Light Snow
9:43 AM 24.8 °F 15.3 °F 21.2 °F 86% 30.00 in 4.0 mi NNE 9.2 mph - 0.00 in   Overcast
9:51 AM 26.6 °F 16.8 °F 21.2 °F 80% 30.01 in 4.0 mi NNE 10.4 mph - 0.00 in   Overcast
9:53 AM 26.1 °F 16.8 °F 21.9 °F 84% 30.03 in 3.0 mi NNE 9.2 mph - 0.00 in   Overcast
10:05 AM 24.8 °F 14.0 °F 21.2 °F 86% 30.01 in 1.5 mi NNE 11.5 mph - 0.00 in Snow Light Snow
10:25 AM 26.6 °F 16.8 °F 21.2 °F 80% 30.00 in 1.2 mi North 10.4 mph - 0.00 in Snow Light Snow
10:43 AM 24.8 °F 16.9 °F 21.2 °F 86% 30.01 in 4.0 mi North 6.9 mph - 0.00 in Snow Light Snow
10:53 AM 25.0 °F 16.3 °F 21.9 °F 88% 30.03 in 4.0 mi North 8.1 mph - 0.00 in Snow Light Snow
11:22 AM 26.6 °F 18.2 °F 23.0 °F 86% 30.01 in 4.0 mi North 8.1 mph - 0.00 in Snow Light Snow
11:53 AM 25.0 °F 17.1 °F 21.0 °F 85% 30.03 in 10.0 mi NNE 6.9 mph - 0.00 in   Overcast
12:53 PM 26.1 °F 19.4 °F 21.9 °F 84% 30.02 in 9.0 mi NNW 5.8 mph - 0.00 in Snow Light Snow
1:31 PM 26.6 °F 20.0 °F 23.0 °F 86% 29.99 in 5.0 mi North 5.8 mph - 0.00 in Snow Light Snow
1:53 PM 27.0 °F 20.5 °F 23.0 °F 85% 30.01 in 6.0 mi North 5.8 mph - 0.01 in Snow Light Snow
2:04 PM 26.6 °F 20.0 °F 23.0 °F 86% 29.99 in 6.0 mi NNW 5.8 mph - 0.00 in Snow Light Snow
2:53 PM 27.0 °F 23.0 °F 23.0 °F 85% 30.01 in 9.0 mi NNW 3.5 mph - 0.00 in   Overcast
3:53 PM 27.0 °F 19.5 °F 24.1 °F 89% 30.01 in 10.0 mi NW 6.9 mph - N/A   Overcast
4:53 PM 27.0 °F 18.0 °F 23.0 °F 85% 30.00 in 10.0 mi NNW 9.2 mph - N/A   Overcast
5:53 PM 27.0 °F 15.6 °F 24.1 °F 89% 30.01 in 9.0 mi NNW 13.8 mph - N/A   Overcast
6:53 PM 27.0 °F 14.7 °F 23.0 °F 85% 30.02 in 10.0 mi NNW 16.1 mph - N/A   Overcast
8:53 PM 27.0 °F 15.2 °F 23.0 °F 85% 30.03 in 10.0 mi NNW 15.0 mph - 0.01 in   Overcast
9:53 PM 27.0 °F 15.2 °F 21.9 °F 81% 30.03 in 10.0 mi NNW 15.0 mph - N/A   Overcast
10:32 PM 26.6 °F 15.2 °F 21.2 °F 80% 30.00 in 10.0 mi NNW 13.8 mph - N/A   Overcast
10:53 PM 26.1 °F 14.5 °F 19.9 °F 78% 30.02 in 10.0 mi NNW 13.8 mph - N/A   Overcast
11:53 PM 25.0 °F 14.2 °F 19.9 °F 81% 30.02 in 9.0 mi NNW 11.5 mph - 0.00 in   Overcast